Regional Weather Roundup
Issued by NWS

Home | Current Version | Previous Version | Graphics & Text | Print | Product List | Glossary On
Versions: 1 2 3 4 5 6 7 8 9 10 11 12 13 14 15 16 17 18 19 20 21 22 23 24 25 26 27 28 29 30 31 32 33 34 35 36 37 38 39 40 41 42 43 44 45 46 47 48 49 50
000
ASUS44 KMEG 270200
RWRTN
TENNESSEE HOURLY STATE WEATHER ROUNDUP
NATIONAL WEATHER SERVICE MEMPHIS TN
800 PM CST SUN FEB 26 2017

TNZ002-004-019-021-049-052-054-088>092-270300-
WEST TENNESSEE

CITY           SKY/WX    TMP DP  RH WIND       PRES   REMARKS
MEMPHIS INTL   CLOUDY    58  24  27 E6        30.05S
NWS MEMPHIS      N/A     56 N/A N/A MISG        N/A
JACKSON        CLOUDY    53  27  36 CALM      30.10R
UNION CITY     MOCLDY    52  10  19 CALM      30.09S
PARIS          MOCLDY    46  25  42 NE5       30.11R
$$

TNZ008-025-027-028-033-062-065-066-270300-
NORTH MIDDLE TENNESSEE

CITY           SKY/WX    TMP DP  RH WIND       PRES   REMARKS
NASHVILLE      MOCLDY    50  26  39 NE3       30.14S
CLARKSVILLE    CLOUDY    45  23  42 SE8       30.13S
SMYRNA         CLOUDY    46  31  55 CALM      30.14F
CROSSVILLE     PTCLDY    44  19  36 VRB6      30.17S
$$

TNZ061-075-076-078-094-096-097-270300-
SOUTH MIDDLE TENNESSEE

CITY           SKY/WX    TMP DP  RH WIND       PRES   REMARKS
TULLAHOMA      CLOUDY    50  16  25 SE8       30.15S
WINCHESTER     PTCLDY    46  25  42 SE6       30.17R
MCMINNVILLE    PTCLDY    48  21  34 CALM      30.16R
COLUMBIA       CLOUDY    52  21  30 E3        30.09F
SHELBYVILLE    CLOUDY    54  25  32 SE8       30.14F
$$

TNZ017-018-042-046-047-270300-
NORTHEAST TENNESSEE

CITY           SKY/WX    TMP DP  RH WIND       PRES   REMARKS
TRI CITIES     CLEAR     34  23  64 CALM      30.23S
$$

TNZ012-013-036-069-073-074-270300-
CENTRAL EAST TENNESSEE

CITY           SKY/WX    TMP DP  RH WIND       PRES   REMARKS
KNOXVILLE      MOCLDY    45  20  36 SE5       30.20S
OAK RIDGE      CLOUDY    42  24  49 CALM      30.23S
GATLINBURG     CLEAR     37  18  44 CALM      30.22S
$$

TNZ083-085-099-270300-
SOUTHEAST TENNESSEE

CITY           SKY/WX    TMP DP  RH WIND       PRES   REMARKS
CHATTANOOGA    PTCLDY    43  31  62 NW3       30.21R
$$

SKY/WX REPORTED AS FAIR MEANS FEW OR NO CLOUDS BELOW
12 THOUSAND FEET.





USA.gov is the U.S. government's official web portal to all federal, state and local government web resources and services.